| time (UTC) | temp C | wind direction | speed KPH | gust KPH | rain 1hr cm | rain 24hr cm | rain mn cm | humidity % | barometer mb |
| 20260507165919 | 9 | 347 | 9.7 | 20.9 | 0.00 | 0.00 | 0.00 | 47 | 1015.5 |
| 20260507165419 | 10 | 312 | 9.7 | 20.9 | 0.00 | 0.00 | 0.00 | 47 | 1015.6 |
| 20260507164919 | 9 | 277 | 8.0 | 27.4 | 0.00 | 0.00 | 0.00 | 48 | 1015.5 |
| 20260507164419 | 9 | 240 | 8.0 | 16.1 | 0.00 | 0.00 | 0.00 | 47 | 1015.7 |
| 20260507163919 | 8 | 300 | 11.3 | 17.7 | 0.00 | 0.00 | 0.00 | 47 | 1015.7 |
| 20260507163419 | 9 | 281 | 11.3 | 22.5 | 0.00 | 0.00 | 0.00 | 46 | 1015.8 |
| 20260507162919 | 9 | 332 | 6.4 | 22.5 | 0.00 | 0.00 | 0.00 | 47 | 1015.9 |
| 20260507162419 | 8 | 309 | 9.7 | 16.1 | 0.00 | 0.00 | 0.00 | 50 | 1015.8 |
| 20260507161919 | 8 | 349 | 12.9 | 20.9 | 0.00 | 0.00 | 0.00 | 48 | 1015.9 |
| 20260507161419 | 8 | 321 | 11.3 | 24.1 | 0.00 | 0.00 | 0.00 | 48 | 1015.9 |
| 20260507160919 | 8 | 271 | 11.3 | 24.1 | 0.00 | 0.00 | 0.00 | 49 | 1015.8 |
| 20260507160419 | 8 | 268 | 11.3 | 25.7 | 0.00 | 0.00 | 0.00 | 49 | 1016.0 |
| 20260507155919 | 8 | 301 | 11.3 | 19.3 | 0.00 | 0.00 | 0.00 | 49 | 1016.0 |
| 20260507155419 | 8 | 293 | 11.3 | 24.1 | 0.00 | 0.00 | 0.00 | 49 | 1016.0 |
| 20260507154920 | 8 | 331 | 9.7 | 22.5 | 0.00 | 0.00 | 0.00 | 51 | 1016.0 |
| 20260507154419 | 8 | 292 | 11.3 | 20.9 | 0.00 | 0.00 | 0.00 | 50 | 1016.0 |
| 20260507153920 | 8 | 276 | 12.9 | 22.5 | 0.00 | 0.00 | 0.00 | 50 | 1015.8 |
| 20260507153420 | 8 | 292 | 9.7 | 27.4 | 0.00 | 0.00 | 0.00 | 50 | 1015.9 |
| 20260507152920 | 8 | 323 | 9.7 | 16.1 | 0.00 | 0.00 | 0.00 | 50 | 1015.7 |
| 20260507152420 | 8 | 320 | 11.3 | 25.7 | 0.00 | 0.00 | 0.00 | 49 | 1015.7 |
| 20260507151920 | 8 | 355 | 12.9 | 20.9 | 0.00 | 0.00 | 0.00 | 51 | 1015.6 |
| 20260507151420 | 8 | 294 | 12.9 | 25.7 | 0.00 | 0.00 | 0.00 | 49 | 1015.6 |
| 20260507150920 | 8 | 271 | 11.3 | 19.3 | 0.00 | 0.00 | 0.00 | 49 | 1015.5 |
| 20260507150420 | 8 | 286 | 11.3 | 22.5 | 0.00 | 0.00 | 0.00 | 51 | 1015.6 |
| 20260507145920 | 8 | 317 | 11.3 | 20.9 | 0.00 | 0.00 | 0.00 | 49 | 1015.4 |
| 20260507145420 | 8 | 10 | 12.9 | 20.9 | 0.00 | 0.00 | 0.00 | 50 | 1015.5 |
| 20260507144920 | 8 | 309 | 12.9 | 24.1 | 0.00 | 0.00 | 0.00 | 51 | 1015.6 |
| 20260507144420 | 8 | 286 | 11.3 | 25.7 | 0.00 | 0.00 | 0.00 | 50 | 1015.5 |
| 20260507143920 | 8 | 5 | 12.9 | 20.9 | 0.00 | 0.00 | 0.00 | 52 | 1015.5 |
| 20260507143420 | 8 | 286 | 12.9 | 24.1 | 0.00 | 0.00 | 0.00 | 51 | 1015.5 |
| 20260507142920 | 7 | 348 | 9.7 | 22.5 | 0.00 | 0.00 | 0.00 | 53 | 1015.5 |
| 20260507142420 | 7 | 288 | 11.3 | 19.3 | 0.00 | 0.00 | 0.00 | 55 | 1015.6 |
| 20260507141920 | 7 | 313 | 12.9 | 24.1 | 0.00 | 0.00 | 0.00 | 54 | 1015.6 |
| 20260507141420 | 7 | 240 | 9.7 | 27.4 | 0.00 | 0.00 | 0.00 | 55 | 1015.6 |
| 20260507140920 | 7 | 306 | 11.3 | 16.1 | 0.00 | 0.00 | 0.00 | 57 | 1015.6 |
| 20260507140420 | 7 | 275 | 11.3 | 24.1 | 0.00 | 0.00 | 0.00 | 55 | 1015.7 |
| 20260507135920 | 7 | 315 | 11.3 | 17.7 | 0.00 | 0.00 | 0.00 | 58 | 1015.7 |
| 20260507135420 | 7 | 276 | 12.9 | 27.4 | 0.00 | 0.00 | 0.00 | 55 | 1015.8 |
| 20260507134920 | 7 | 284 | 11.3 | 29.0 | 0.00 | 0.00 | 0.00 | 55 | 1015.7 |
| 20260507134420 | 7 | 269 | 9.7 | 19.3 | 0.00 | 0.00 | 0.00 | 56 | 1015.7 |
| 20260507133920 | 7 | 269 | 6.4 | 19.3 | 0.00 | 0.00 | 0.00 | 57 | 1015.7 |
| 20260507133420 | 7 | 272 | 8.0 | 16.1 | 0.00 | 0.00 | 0.00 | 59 | 1015.7 |
| 20260507132920 | 7 | 331 | 8.0 | 19.3 | 0.00 | 0.00 | 0.00 | 57 | 1015.8 |
| 20260507132420 | 7 | 329 | 6.4 | 14.5 | 0.00 | 0.00 | 0.00 | 61 | 1015.7 |
| 20260507131920 | 6 | 295 | 6.4 | 17.7 | 0.00 | 0.00 | 0.00 | 60 | 1015.6 |
| 20260507131420 | 6 | 313 | 8.0 | 16.1 | 0.00 | 0.00 | 0.00 | 62 | 1015.5 |
| 20260507130920 | 6 | 257 | 6.4 | 16.1 | 0.00 | 0.00 | 0.00 | 63 | 1015.5 |
| 20260507130420 | 6 | 311 | 6.4 | 11.3 | 0.00 | 0.00 | 0.00 | 64 | 1015.4 |
| 20260507125920 | 6 | 325 | 9.7 | 19.3 | 0.00 | 0.00 | 0.00 | 64 | 1015.4 |
| 20260507125420 | 6 | 284 | 8.0 | 16.1 | 0.00 | 0.00 | 0.00 | 64 | 1015.4 |
| 20260507124920 | 6 | 295 | 6.4 | 16.1 | 0.00 | 0.00 | 0.00 | 66 | 1015.4 |
| 20260507124420 | 6 | 296 | 6.4 | 16.1 | 0.00 | 0.00 | 0.00 | 67 | 1015.4 |
| 20260507123920 | 5 | 303 | 6.4 | 14.5 | 0.00 | 0.00 | 0.00 | 69 | 1015.5 |
| 20260507123420 | 5 | 250 | 4.8 | 17.7 | 0.00 | 0.00 | 0.00 | 70 | 1015.5 |
| 20260507122920 | 5 | 257 | 4.8 | 11.3 | 0.00 | 0.00 | 0.00 | 71 | 1015.4 |
| 20260507122420 | 5 | 282 | 1.6 | 11.3 | 0.00 | 0.00 | 0.00 | 73 | 1015.5 |
| 20260507121920 | 5 | 298 | 1.6 | 6.4 | 0.00 | 0.00 | 0.00 | 73 | 1015.4 |
| 20260507121420 | 5 | 284 | 1.6 | 8.0 | 0.00 | 0.00 | 0.00 | 74 | 1015.4 |
| 20260507120920 | 5 | 288 | 1.6 | 8.0 | 0.00 | 0.00 | 0.00 | 77 | 1015.5 |
| 20260507120420 | 4 | 296 | 1.6 | 9.7 | 0.00 | 0.00 | 0.00 | 79 | 1015.4 |
| 20260507115920 | 3 | 248 | 1.6 | 11.3 | 0.00 | 0.00 | 0.00 | 81 | 1015.4 |
| 20260507115420 | 3 | 244 | 0.0 | 6.4 | 0.00 | 0.00 | 0.00 | 85 | 1015.4 |
| 20260507114920 | 2 | 273 | 0.0 | 3.2 | 0.00 | 0.00 | 0.00 | 88 | 1015.4 |
| 20260507114420 | 2 | 274 | 0.0 | 3.2 | 0.00 | 0.00 | 0.00 | 91 | 1015.5 |
| 20260507113920 | 1 | 248 | 0.0 | 0.0 | 0.00 | 0.00 | 0.00 | 91 | 1015.4 |
| 20260507113420 | 1 | 248 | 0.0 | 0.0 | 0.00 | 0.00 | 0.00 | 91 | 1015.3 |
| 20260507112920 | 1 | 248 | 0.0 | 0.0 | 0.00 | 0.00 | 0.00 | 91 | 1015.2 |
| 20260507112420 | 1 | 248 | 0.0 | 0.0 | 0.00 | 0.00 | 0.00 | 91 | 1015.2 |
| 20260507111920 | 0 | 248 | 0.0 | 0.0 | 0.00 | 0.00 | 0.00 | 91 | 1015.2 |
| 20260507111420 | 0 | 248 | 0.0 | 0.0 | 0.00 | 0.00 | 0.00 | 90 | 1015.0 |
| 20260507110920 | 0 | 248 | 0.0 | 0.0 | 0.00 | 0.00 | 0.00 | 90 | 1014.9 |
| 20260507110420 | 0 | 248 | 0.0 | 0.0 | 0.00 | 0.00 | 0.00 | 90 | 1014.9 |
| 20260507105920 | 0 | 248 | 0.0 | 0.0 | 0.00 | 0.00 | 0.00 | 89 | 1014.8 |
| 20260507105420 | 0 | 248 | 0.0 | 0.0 | 0.00 | 0.00 | 0.00 | 89 | 1014.8 |
| 20260507104920 | 0 | 248 | 0.0 | 0.0 | 0.00 | 0.00 | 0.00 | 89 | 1014.8 |
| 20260507104420 | 0 | 248 | 0.0 | 0.0 | 0.00 | 0.00 | 0.00 | 89 | 1014.8 |
| 20260507103920 | 0 | 248 | 0.0 | 0.0 | 0.00 | 0.00 | 0.00 | 88 | 1014.7 |
| 20260507103420 | 0 | 248 | 0.0 | 0.0 | 0.00 | 0.00 | 0.00 | 89 | 1014.7 |
| 20260507102921 | 0 | 248 | 0.0 | 0.0 | 0.00 | 0.00 | 0.00 | 88 | 1014.6 |
| 20260507102421 | 0 | 248 | 0.0 | 0.0 | 0.00 | 0.00 | 0.00 | 88 | 1014.6 |
| 20260507101921 | 0 | 248 | 0.0 | 0.0 | 0.00 | 0.00 | 0.00 | 88 | 1014.6 |
| 20260507101421 | 0 | 248 | 0.0 | 0.0 | 0.00 | 0.00 | 0.00 | 88 | 1014.7 |
| 20260507100921 | 0 | 248 | 0.0 | 0.0 | 0.00 | 0.00 | 0.00 | 87 | 1014.7 |
| 20260507100421 | 0 | 248 | 0.0 | 0.0 | 0.00 | 0.00 | 0.00 | 87 | 1014.7 |
| 20260507095921 | 0 | 248 | 0.0 | 0.0 | 0.00 | 0.00 | 0.00 | 87 | 1014.7 |
| 20260507095421 | 1 | 248 | 0.0 | 0.0 | 0.00 | 0.00 | 0.00 | 86 | 1014.6 |
| 20260507094921 | 1 | 248 | 0.0 | 0.0 | 0.00 | 0.00 | 0.00 | 86 | 1014.6 |
| 20260507094421 | 1 | 248 | 0.0 | 0.0 | 0.00 | 0.00 | 0.00 | 85 | 1014.6 |
| 20260507093921 | 1 | 248 | 0.0 | 0.0 | 0.00 | 0.00 | 0.00 | 85 | 1014.5 |
| 20260507093421 | 1 | 248 | 0.0 | 0.0 | 0.00 | 0.00 | 0.00 | 84 | 1014.5 |
| 20260507092921 | 1 | 248 | 0.0 | 0.0 | 0.00 | 0.00 | 0.00 | 84 | 1014.6 |
| 20260507092421 | 1 | 248 | 0.0 | 0.0 | 0.00 | 0.00 | 0.00 | 84 | 1014.6 |
| 20260507091921 | 1 | 248 | 0.0 | 0.0 | 0.00 | 0.00 | 0.00 | 84 | 1014.6 |
| 20260507091421 | 1 | 248 | 0.0 | 0.0 | 0.00 | 0.00 | 0.00 | 84 | 1014.7 |
| 20260507090921 | 1 | 248 | 0.0 | 0.0 | 0.00 | 0.00 | 0.00 | 84 | 1014.7 |
| 20260507090421 | 2 | 248 | 0.0 | 0.0 | 0.00 | 0.00 | 0.00 | 84 | 1014.7 |
| 20260507085921 | 2 | 248 | 0.0 | 0.0 | 0.00 | 0.00 | 0.00 | 83 | 1014.8 |
| 20260507085421 | 2 | 248 | 0.0 | 0.0 | 0.00 | 0.00 | 0.00 | 83 | 1014.7 |
| 20260507084921 | 2 | 248 | 0.0 | 0.0 | 0.00 | 0.00 | 0.00 | 81 | 1014.7 |
| 20260507084421 | 2 | 248 | 0.0 | 0.0 | 0.00 | 0.00 | 0.00 | 81 | 1014.8 |
| 20260507083921 | 2 | 248 | 0.0 | 0.0 | 0.00 | 0.00 | 0.00 | 80 | 1014.7 |
| 20260507083421 | 3 | 248 | 0.0 | 0.0 | 0.00 | 0.00 | 0.00 | 79 | 1014.8 |
| 20260507082921 | 3 | 248 | 0.0 | 0.0 | 0.00 | 0.00 | 0.00 | 77 | 1014.7 |
| 20260507082421 | 3 | 326 | 0.0 | 0.0 | 0.00 | 0.00 | 0.00 | 74 | 1014.7 |
| 20260507081921 | 4 | 326 | 0.0 | 0.0 | 0.00 | 0.00 | 0.00 | 72 | 1014.7 |
| 20260507081421 | 4 | 326 | 0.0 | 0.0 | 0.00 | 0.00 | 0.00 | 72 | 1014.7 |
| 20260507080921 | 4 | 326 | 0.0 | 0.0 | 0.00 | 0.00 | 0.00 | 72 | 1014.7 |
| 20260507080421 | 5 | 326 | 0.0 | 0.0 | 0.00 | 0.00 | 0.00 | 71 | 1014.7 |
| 20260507075921 | 5 | 326 | 0.0 | 0.0 | 0.00 | 0.00 | 0.00 | 71 | 1014.8 |
| 20260507075421 | 5 | 326 | 0.0 | 0.0 | 0.00 | 0.00 | 0.00 | 71 | 1014.8 |
| 20260507074921 | 5 | 326 | 0.0 | 0.0 | 0.00 | 0.00 | 0.00 | 71 | 1014.7 |
| 20260507074421 | 5 | 327 | 0.0 | 0.0 | 0.00 | 0.00 | 0.00 | 71 | 1014.7 |
| 20260507073921 | 5 | 326 | 0.0 | 0.0 | 0.00 | 0.00 | 0.00 | 70 | 1014.7 |
| 20260507073421 | 5 | 300 | 1.6 | 0.0 | 0.00 | 0.00 | 0.00 | 70 | 1014.7 |
| 20260507072921 | 5 | 320 | 1.6 | 6.4 | 0.00 | 0.00 | 0.00 | 70 | 1014.7 |
| 20260507072421 | 5 | 327 | 0.0 | 1.6 | 0.00 | 0.00 | 0.00 | 70 | 1014.7 |
| 20260507071921 | 5 | 318 | 0.0 | 0.0 | 0.00 | 0.00 | 0.00 | 70 | 1014.7 |
| 20260507071421 | 5 | 329 | 0.0 | 0.0 | 0.00 | 0.00 | 0.00 | 70 | 1014.6 |
| 20260507070921 | 6 | 307 | 0.0 | 0.0 | 0.00 | 0.00 | 0.00 | 70 | 1014.7 |
| 20260507070421 | 6 | 304 | 0.0 | 0.0 | 0.00 | 0.00 | 0.00 | 70 | 1014.7 |
| 20260507065921 | 6 | 316 | 1.6 | 0.0 | 0.00 | 0.00 | 0.00 | 70 | 1014.6 |
| 20260507065421 | 6 | 308 | 1.6 | 9.7 | 0.00 | 0.00 | 0.00 | 70 | 1014.6 |
| 20260507064921 | 6 | 304 | 1.6 | 3.2 | 0.00 | 0.00 | 0.00 | 70 | 1014.6 |
| 20260507064421 | 6 | 331 | 1.6 | 9.7 | 0.00 | 0.00 | 0.00 | 70 | 1014.6 |
| 20260507063921 | 6 | 317 | 0.0 | 1.6 | 0.00 | 0.00 | 0.00 | 70 | 1014.6 |
| 20260507063421 | 6 | 298 | 1.6 | 4.8 | 0.00 | 0.00 | 0.00 | 70 | 1014.7 |
| 20260507062921 | 6 | 277 | 1.6 | 8.0 | 0.00 | 0.00 | 0.00 | 71 | 1014.7 |
| 20260507062421 | 6 | 317 | 0.0 | 8.0 | 0.00 | 0.00 | 0.00 | 71 | 1014.6 |
| 20260507061921 | 6 | 308 | 1.6 | 3.2 | 0.00 | 0.00 | 0.00 | 71 | 1014.6 |
| 20260507061421 | 6 | 281 | 3.2 | 8.0 | 0.00 | 0.00 | 0.00 | 71 | 1014.6 |
| 20260507060921 | 6 | 281 | 3.2 | 16.1 | 0.00 | 0.00 | 0.00 | 70 | 1014.6 |
| 20260507060422 | 6 | 292 | 1.6 | 8.0 | 0.00 | 0.00 | 0.00 | 71 | 1014.6 |
| 20260507055921 | 6 | 308 | 1.6 | 4.8 | 0.00 | 0.00 | 0.00 | 72 | 1014.6 |
| 20260507055421 | 6 | 265 | 0.0 | 4.8 | 0.00 | 0.00 | 0.00 | 73 | 1014.6 |
| 20260507054921 | 6 | 286 | 0.0 | 4.8 | 0.00 | 0.00 | 0.00 | 73 | 1014.6 |
| 20260507054421 | 6 | 342 | 0.0 | 0.0 | 0.00 | 0.00 | 0.00 | 74 | 1014.6 |
| 20260507053921 | 6 | 342 | 0.0 | 0.0 | 0.00 | 0.00 | 0.00 | 74 | 1014.6 |
| 20260507053421 | 6 | 342 | 0.0 | 1.6 | 0.00 | 0.00 | 0.00 | 74 | 1014.7 |
| 20260507052921 | 5 | 342 | 0.0 | 1.6 | 0.00 | 0.00 | 0.00 | 74 | 1014.7 |
| 20260507052422 | 5 | 342 | 0.0 | 1.6 | 0.00 | 0.00 | 0.00 | 75 | 1014.6 |
| 20260507051922 | 5 | 342 | 0.0 | 1.6 | 0.00 | 0.00 | 0.00 | 76 | 1014.7 |
| 20260507051422 | 5 | 342 | 0.0 | 0.0 | 0.00 | 0.00 | 0.00 | 78 | 1014.7 |
| 20260507050922 | 5 | 342 | 0.0 | 0.0 | 0.00 | 0.00 | 0.00 | 78 | 1014.6 |
| 20260507050422 | 5 | 342 | 0.0 | 0.0 | 0.00 | 0.00 | 0.00 | 78 | 1014.6 |
| 20260507045922 | 5 | 342 | 0.0 | 0.0 | 0.00 | 0.00 | 0.00 | 78 | 1014.7 |
| 20260507045422 | 5 | 342 | 0.0 | 0.0 | 0.00 | 0.00 | 0.00 | 78 | 1014.6 |
| 20260507044922 | 5 | 342 | 0.0 | 0.0 | 0.00 | 0.00 | 0.00 | 79 | 1014.6 |
| 20260507044422 | 5 | 342 | 0.0 | 0.0 | 0.00 | 0.00 | 0.00 | 78 | 1014.6 |
| 20260507043922 | 5 | 342 | 0.0 | 0.0 | 0.00 | 0.00 | 0.00 | 78 | 1014.7 |
| 20260507043422 | 5 | 342 | 0.0 | 0.0 | 0.00 | 0.00 | 0.00 | 78 | 1014.6 |
| 20260507042922 | 5 | 342 | 0.0 | 0.0 | 0.00 | 0.00 | 0.00 | 78 | 1014.5 |
| 20260507042422 | 5 | 342 | 0.0 | 0.0 | 0.00 | 0.00 | 0.00 | 75 | 1014.6 |
| 20260507041922 | 5 | 342 | 0.0 | 0.0 | 0.00 | 0.00 | 0.00 | 74 | 1014.6 |
| 20260507041422 | 5 | 342 | 0.0 | 0.0 | 0.00 | 0.00 | 0.00 | 74 | 1014.5 |
| 20260507040922 | 5 | 342 | 0.0 | 0.0 | 0.00 | 0.00 | 0.00 | 73 | 1014.6 |
| 20260507040422 | 5 | 342 | 0.0 | 0.0 | 0.00 | 0.00 | 0.00 | 73 | 1014.6 |
| 20260507035922 | 5 | 342 | 0.0 | 0.0 | 0.00 | 0.00 | 0.00 | 73 | 1014.6 |
| 20260507035422 | 6 | 342 | 0.0 | 0.0 | 0.00 | 0.00 | 0.00 | 76 | 1014.6 |
| 20260507034922 | 6 | 342 | 0.0 | 0.0 | 0.00 | 0.00 | 0.00 | 74 | 1014.7 |
| 20260507034422 | 6 | 342 | 0.0 | 0.0 | 0.00 | 0.00 | 0.00 | 74 | 1014.7 |
| 20260507033922 | 6 | 342 | 0.0 | 0.0 | 0.00 | 0.00 | 0.00 | 72 | 1014.6 |
| 20260507033422 | 6 | 342 | 0.0 | 0.0 | 0.00 | 0.00 | 0.00 | 70 | 1014.6 |
| 20260507032922 | 6 | 342 | 0.0 | 0.0 | 0.00 | 0.00 | 0.00 | 70 | 1014.7 |
| 20260507032422 | 7 | 342 | 0.0 | 0.0 | 0.00 | 0.00 | 0.00 | 67 | 1014.6 |
| 20260507031922 | 7 | 342 | 0.0 | 0.0 | 0.00 | 0.00 | 0.00 | 71 | 1014.6 |
| 20260507031422 | 7 | 342 | 0.0 | 0.0 | 0.00 | 0.00 | 0.00 | 68 | 1014.6 |
| 20260507030922 | 7 | 342 | 0.0 | 0.0 | 0.00 | 0.00 | 0.00 | 67 | 1014.6 |
| 20260507030422 | 7 | 342 | 0.0 | 0.0 | 0.00 | 0.00 | 0.00 | 68 | 1014.5 |
| 20260507025922 | 7 | 342 | 0.0 | 0.0 | 0.00 | 0.00 | 0.00 | 70 | 1014.6 |
| 20260507025422 | 7 | 342 | 0.0 | 0.0 | 0.00 | 0.00 | 0.00 | 69 | 1014.7 |
| 20260507024922 | 7 | 342 | 0.0 | 0.0 | 0.00 | 0.00 | 0.00 | 68 | 1014.7 |
| 20260507024422 | 7 | 342 | 0.0 | 0.0 | 0.00 | 0.00 | 0.00 | 67 | 1014.7 |
| 20260507023922 | 7 | 342 | 0.0 | 0.0 | 0.00 | 0.00 | 0.00 | 68 | 1014.7 |
| 20260507023422 | 7 | 342 | 0.0 | 0.0 | 0.00 | 0.00 | 0.00 | 66 | 1014.7 |
| 20260507022922 | 8 | 342 | 0.0 | 0.0 | 0.00 | 0.00 | 0.00 | 65 | 1014.7 |
| 20260507022422 | 8 | 342 | 0.0 | 0.0 | 0.00 | 0.00 | 0.00 | 64 | 1014.6 |
| 20260507021922 | 8 | 342 | 0.0 | 0.0 | 0.00 | 0.00 | 0.00 | 63 | 1014.5 |
| 20260507021422 | 8 | 342 | 0.0 | 0.0 | 0.00 | 0.00 | 0.00 | 62 | 1014.5 |
| 20260507020922 | 8 | 342 | 0.0 | 0.0 | 0.00 | 0.00 | 0.00 | 64 | 1014.4 |
| 20260507020422 | 8 | 342 | 0.0 | 0.0 | 0.00 | 0.00 | 0.00 | 56 | 1014.3 |
| 20260507015922 | 8 | 342 | 0.0 | 0.0 | 0.00 | 0.00 | 0.00 | 54 | 1014.3 |
| 20260507015422 | 8 | 342 | 0.0 | 0.0 | 0.00 | 0.00 | 0.00 | 55 | 1014.2 |
| 20260507014922 | 8 | 342 | 0.0 | 0.0 | 0.00 | 0.00 | 0.00 | 54 | 1014.2 |
| 20260507014422 | 8 | 342 | 0.0 | 0.0 | 0.00 | 0.00 | 0.00 | 54 | 1014.2 |
| 20260507013922 | 8 | 342 | 0.0 | 0.0 | 0.00 | 0.00 | 0.00 | 50 | 1014.1 |
| 20260507013422 | 9 | 342 | 0.0 | 0.0 | 0.00 | 0.00 | 0.00 | 50 | 1014.1 |
| 20260507012922 | 9 | 342 | 0.0 | 0.0 | 0.00 | 0.00 | 0.00 | 49 | 1014.1 |
| 20260507012422 | 9 | 342 | 0.0 | 0.0 | 0.00 | 0.00 | 0.00 | 50 | 1014.1 |
| 20260507011922 | 9 | 342 | 0.0 | 0.0 | 0.00 | 0.00 | 0.00 | 50 | 1014.0 |
| 20260507011422 | 9 | 342 | 0.0 | 0.0 | 0.00 | 0.00 | 0.00 | 50 | 1014.1 |
| 20260507010922 | 9 | 342 | 0.0 | 0.0 | 0.00 | 0.00 | 0.00 | 49 | 1014.0 |
| 20260507010422 | 10 | 342 | 0.0 | 0.0 | 0.00 | 0.00 | 0.00 | 48 | 1014.0 |
| 20260507005922 | 10 | 342 | 0.0 | 0.0 | 0.00 | 0.00 | 0.00 | 49 | 1013.9 |
| 20260507005422 | 10 | 342 | 0.0 | 0.0 | 0.00 | 0.00 | 0.00 | 49 | 1014.0 |
| 20260507004922 | 10 | 342 | 0.0 | 0.0 | 0.00 | 0.00 | 0.00 | 49 | 1013.9 |
| 20260507004422 | 10 | 342 | 0.0 | 0.0 | 0.00 | 0.00 | 0.00 | 46 | 1013.9 |
| 20260507003922 | 10 | 342 | 0.0 | 0.0 | 0.00 | 0.00 | 0.00 | 45 | 1013.9 |
| 20260507003422 | 10 | 342 | 0.0 | 1.6 | 0.00 | 0.00 | 0.00 | 43 | 1013.9 |
| 20260507002922 | 10 | 317 | 0.0 | 0.0 | 0.00 | 0.00 | 0.00 | 44 | 1013.9 |
| 20260507002422 | 10 | 306 | 0.0 | 0.0 | 0.00 | 0.00 | 0.00 | 43 | 1013.9 |
| 20260507001922 | 10 | 306 | 0.0 | 0.0 | 0.00 | 0.00 | 0.00 | 43 | 1013.9 |
| 20260507001422 | 10 | 303 | 0.0 | 0.0 | 0.00 | 0.00 | 0.00 | 42 | 1013.7 |
| 20260507000923 | 10 | 306 | 0.0 | 0.0 | 0.00 | 0.00 | 0.00 | 42 | 1013.7 |
| 20260507000423 | 10 | 272 | 0.0 | 3.2 | 0.00 | 0.00 | 0.00 | 41 | 1013.7 |
| 20260506235923 | 10 | 275 | 0.0 | 6.4 | 0.00 | 0.00 | 0.00 | 40 | 1013.8 |
| 20260506235423 | 10 | 286 | 0.0 | 0.0 | 0.00 | 0.00 | 0.00 | 42 | 1013.8 |
| 20260506234923 | 11 | 289 | 1.6 | 8.0 | 0.00 | 0.00 | 0.00 | 40 | 1013.8 |
| 20260506234423 | 11 | 275 | 1.6 | 4.8 | 0.00 | 0.00 | 0.00 | 40 | 1013.8 |
| 20260506233923 | 11 | 282 | 4.8 | 9.7 | 0.00 | 0.00 | 0.00 | 39 | 1013.7 |
| 20260506233423 | 11 | 327 | 4.8 | 16.1 | 0.00 | 0.00 | 0.00 | 40 | 1013.7 |
| 20260506232923 | 11 | 311 | 4.8 | 16.1 | 0.00 | 0.00 | 0.00 | 39 | 1013.8 |
| 20260506232423 | 11 | 277 | 6.4 | 16.1 | 0.00 | 0.00 | 0.00 | 40 | 1013.7 |
| 20260506231923 | 11 | 294 | 6.4 | 20.9 | 0.00 | 0.00 | 0.00 | 39 | 1013.7 |
| 20260506231423 | 11 | 267 | 6.4 | 16.1 | 0.00 | 0.00 | 0.00 | 40 | 1013.8 |
| 20260506230923 | 11 | 283 | 6.4 | 19.3 | 0.00 | 0.00 | 0.00 | 39 | 1013.8 |
| 20260506230423 | 11 | 319 | 6.4 | 22.5 | 0.00 | 0.00 | 0.00 | 38 | 1013.7 |
| 20260506225923 | 11 | 331 | 8.0 | 16.1 | 0.00 | 0.00 | 0.00 | 38 | 1013.8 |
| 20260506225423 | 11 | 293 | 9.7 | 22.5 | 0.00 | 0.00 | 0.00 | 37 | 1013.8 |
| 20260506224923 | 11 | 307 | 9.7 | 17.7 | 0.00 | 0.00 | 0.00 | 40 | 1013.8 |
| 20260506224423 | 11 | 322 | 8.0 | 20.9 | 0.00 | 0.00 | 0.00 | 38 | 1013.7 |
| 20260506223923 | 12 | 321 | 8.0 | 19.3 | 0.00 | 0.00 | 0.00 | 39 | 1013.7 |
| 20260506223423 | 11 | 321 | 4.8 | 20.9 | 0.00 | 0.00 | 0.00 | 39 | 1013.7 |
| 20260506222923 | 11 | 319 | 4.8 | 14.5 | 0.00 | 0.00 | 0.00 | 39 | 1013.7 |
| 20260506222423 | 11 | 275 | 8.0 | 20.9 | 0.00 | 0.00 | 0.00 | 39 | 1013.8 |
| 20260506221923 | 11 | 317 | 8.0 | 17.7 | 0.00 | 0.00 | 0.00 | 38 | 1013.8 |
| 20260506221423 | 11 | 313 | 8.0 | 17.7 | 0.00 | 0.00 | 0.00 | 38 | 1013.7 |
| 20260506220923 | 11 | 300 | 4.8 | 22.5 | 0.00 | 0.00 | 0.00 | 38 | 1013.7 |
| 20260506220423 | 11 | 300 | 4.8 | 14.5 | 0.00 | 0.00 | 0.00 | 39 | 1013.7 |
| 20260506215923 | 11 | 270 | 6.4 | 19.3 | 0.00 | 0.00 | 0.00 | 38 | 1013.7 |
| 20260506215423 | 11 | 305 | 9.7 | 19.3 | 0.00 | 0.00 | 0.00 | 37 | 1013.7 |
| 20260506214923 | 11 | 290 | 11.3 | 25.7 | 0.00 | 0.00 | 0.00 | 39 | 1013.7 |
| 20260506214423 | 12 | 306 | 9.7 | 25.7 | 0.00 | 0.00 | 0.00 | 38 | 1013.7 |
| 20260506213923 | 12 | 286 | 8.0 | 20.9 | 0.00 | 0.00 | 0.00 | 37 | 1013.7 |
| 20260506213423 | 12 | 351 | 9.7 | 20.9 | 0.00 | 0.00 | 0.00 | 37 | 1013.7 |
| 20260506212923 | 12 | 275 | 12.9 | 20.9 | 0.00 | 0.00 | 0.00 | 38 | 1013.7 |
| 20260506212423 | 12 | 5 | 14.5 | 22.5 | 0.00 | 0.00 | 0.00 | 37 | 1013.7 |
| 20260506211923 | 12 | 312 | 11.3 | 22.5 | 0.00 | 0.00 | 0.00 | 37 | 1013.8 |
| 20260506211423 | 12 | 292 | 9.7 | 22.5 | 0.00 | 0.00 | 0.00 | 37 | 1013.7 |
| 20260506210923 | 11 | 322 | 11.3 | 20.9 | 0.00 | 0.00 | 0.00 | 37 | 1013.8 |
| 20260506210423 | 11 | 304 | 12.9 | 29.0 | 0.00 | 0.00 | 0.00 | 38 | 1013.9 |
| 20260506205923 | 11 | 252 | 12.9 | 24.1 | 0.00 | 0.00 | 0.00 | 37 | 1013.9 |
| 20260506205423 | 11 | 272 | 9.7 | 22.5 | 0.00 | 0.00 | 0.00 | 37 | 1013.9 |
| 20260506204923 | 11 | 286 | 14.5 | 24.1 | 0.00 | 0.00 | 0.00 | 38 | 1014.0 |
| 20260506204423 | 11 | 282 | 12.9 | 27.4 | 0.00 | 0.00 | 0.00 | 37 | 1014.1 |
| 20260506203923 | 11 | 304 | 8.0 | 16.1 | 0.00 | 0.00 | 0.00 | 38 | 1014.0 |
| 20260506203423 | 11 | 320 | 11.3 | 22.5 | 0.00 | 0.00 | 0.00 | 38 | 1014.0 |
| 20260506202923 | 11 | 329 | 11.3 | 27.4 | 0.00 | 0.00 | 0.00 | 39 | 1014.1 |
| 20260506202423 | 11 | 287 | 9.7 | 20.9 | 0.00 | 0.00 | 0.00 | 37 | 1014.1 |
| 20260506201923 | 11 | 298 | 11.3 | 20.9 | 0.00 | 0.00 | 0.00 | 37 | 1014.1 |
| 20260506201423 | 12 | 346 | 12.9 | 24.1 | 0.00 | 0.00 | 0.00 | 37 | 1014.2 |
| 20260506200923 | 12 | 341 | 12.9 | 24.1 | 0.00 | 0.00 | 0.00 | 38 | 1014.3 |
| 20260506200423 | 11 | 308 | 12.9 | 25.7 | 0.00 | 0.00 | 0.00 | 38 | 1014.4 |
| 20260506195923 | 12 | 305 | 9.7 | 25.7 | 0.00 | 0.00 | 0.00 | 38 | 1014.5 |
| 20260506195423 | 12 | 269 | 9.7 | 19.3 | 0.00 | 0.00 | 0.00 | 39 | 1014.3 |
| 20260506194923 | 11 | 5 | 11.3 | 19.3 | 0.00 | 0.00 | 0.00 | 39 | 1014.4 |
| 20260506194423 | 11 | 271 | 11.3 | 24.1 | 0.00 | 0.00 | 0.00 | 37 | 1014.4 |
| 20260506193923 | 12 | 288 | 12.9 | 25.7 | 0.00 | 0.00 | 0.00 | 37 | 1014.4 |
| 20260506193423 | 11 | 348 | 14.5 | 35.4 | 0.00 | 0.00 | 0.00 | 37 | 1014.4 |
| 20260506192923 | 11 | 306 | 12.9 | 27.4 | 0.00 | 0.00 | 0.00 | 37 | 1014.4 |
| 20260506192423 | 11 | 244 | 11.3 | 24.1 | 0.00 | 0.00 | 0.00 | 35 | 1014.4 |
| 20260506191924 | 11 | 47 | 9.7 | 20.9 | 0.00 | 0.00 | 0.00 | 39 | 1014.2 |
| 20260506191424 | 11 | 334 | 8.0 | 20.9 | 0.00 | 0.00 | 0.00 | 41 | 1014.2 |
| 20260506190924 | 11 | 14 | 9.7 | 17.7 | 0.00 | 0.00 | 0.00 | 39 | 1014.2 |
| 20260506190424 | 11 | 310 | 9.7 | 20.9 | 0.00 | 0.00 | 0.00 | 39 | 1014.2 |
| 20260506185924 | 11 | 303 | 9.7 | 24.1 | 0.00 | 0.00 | 0.00 | 39 | 1014.2 |
| 20260506185424 | 11 | 258 | 11.3 | 20.9 | 0.00 | 0.00 | 0.00 | 38 | 1014.4 |
| 20260506184924 | 11 | 252 | 11.3 | 24.1 | 0.00 | 0.00 | 0.00 | 38 | 1014.4 |
| 20260506184424 | 11 | 268 | 12.9 | 19.3 | 0.00 | 0.00 | 0.00 | 41 | 1014.3 |
| 20260506183924 | 11 | 277 | 14.5 | 25.7 | 0.00 | 0.00 | 0.00 | 38 | 1014.4 |
| 20260506183424 | 12 | 288 | 9.7 | 20.9 | 0.00 | 0.00 | 0.00 | 38 | 1014.3 |
| 20260506182924 | 12 | 294 | 6.4 | 17.7 | 0.00 | 0.00 | 0.00 | 38 | 1014.3 |
| 20260506182424 | 12 | 13 | 8.0 | 14.5 | 0.00 | 0.00 | 0.00 | 38 | 1014.2 |
| 20260506181924 | 12 | 294 | 9.7 | 16.1 | 0.00 | 0.00 | 0.00 | 39 | 1014.2 |
| 20260506181424 | 11 | 335 | 11.3 | 29.0 | 0.00 | 0.00 | 0.00 | 37 | 1014.2 |
| 20260506180924 | 11 | 319 | 11.3 | 24.1 | 0.00 | 0.00 | 0.00 | 40 | 1014.4 |
| 20260506180424 | 11 | 300 | 8.0 | 20.9 | 0.00 | 0.00 | 0.00 | 38 | 1014.3 |
| 20260506175924 | 11 | 321 | 9.7 | 16.1 | 0.00 | 0.00 | 0.00 | 40 | 1014.2 |
| 20260506175424 | 11 | 333 | 12.9 | 30.6 | 0.00 | 0.00 | 0.00 | 38 | 1014.2 |
| 20260506174924 | 11 | 342 | 9.7 | 22.5 | 0.00 | 0.00 | 0.00 | 40 | 1014.1 |
| 20260506174424 | 11 | 286 | 8.0 | 19.3 | 0.00 | 0.00 | 0.00 | 41 | 1014.1 |
| 20260506173924 | 11 | 333 | 9.7 | 20.9 | 0.00 | 0.00 | 0.00 | 40 | 1014.1 |
| 20260506173424 | 11 | 299 | 9.7 | 20.9 | 0.00 | 0.00 | 0.00 | 41 | 1014.2 |
| 20260506172924 | 11 | 267 | 12.9 | 20.9 | 0.00 | 0.00 | 0.00 | 40 | 1014.2 |
| 20260506172424 | 11 | 333 | 12.9 | 22.5 | 0.00 | 0.00 | 0.00 | 40 | 1014.2 |
| 20260506171924 | 11 | 355 | 11.3 | 25.7 | 0.00 | 0.00 | 0.00 | 42 | 1014.2 |
| 20260506171424 | 10 | 276 | 9.7 | 19.3 | 0.00 | 0.00 | 0.00 | 41 | 1014.3 |
| 20260506170924 | 10 | 319 | 12.9 | 19.3 | 0.00 | 0.00 | 0.00 | 43 | 1014.4 |
| 20260506170424 | 10 | 298 | 8.0 | 20.9 | 0.00 | 0.00 | 0.00 | 41 | 1014.4 |